Time,TemperatureF,DewpointF,PressureIn,WindDirection,WindDirectionDegrees,WindSpeedMPH,WindSpeedGustMPH,Humidity,HourlyPrecipIn,Conditions,Clouds,dailyrainin,SoftwareType,DateUTC
2013-08-02 00:33:00,58.0,57.0,30.00,NW,318,0.0,0.0,95,0.00,,,0.00,,2013-08-02 04:33:00,
2013-08-02 00:43:00,58.0,57.0,30.01,NW,318,0.0,0.0,95,0.00,,,0.00,,2013-08-02 04:43:00,
2013-08-02 00:53:00,58.0,57.0,30.01,NW,318,0.0,0.0,95,0.00,,,0.00,,2013-08-02 04:53:00,
2013-08-02 01:02:00,57.0,56.0,30.00,NW,318,0.0,0.0,96,0.00,,,0.00,,2013-08-02 05:02:00,
2013-08-02 01:12:00,57.0,56.0,30.01,NW,318,0.0,0.0,96,0.00,,,0.00,,2013-08-02 05:12:00,
2013-08-02 01:22:00,57.0,56.0,30.01,NW,318,0.0,0.0,96,0.00,,,0.00,,2013-08-02 05:22:00,
2013-08-02 01:32:00,57.0,56.0,29.99,NW,318,0.0,0.0,96,0.00,,,0.00,,2013-08-02 05:32:00,
2013-08-02 01:43:00,57.0,56.0,29.99,NW,318,0.0,0.0,96,0.00,,,0.00,,2013-08-02 05:43:00,
2013-08-02 01:53:00,57.0,56.0,29.99,NW,318,0.0,0.0,97,0.00,,,0.00,,2013-08-02 05:53:00,
2013-08-02 02:02:00,57.0,56.0,29.98,NW,314,0.0,0.0,97,0.00,,,0.00,,2013-08-02 06:02:00,
2013-08-02 02:12:00,57.0,56.0,29.98,NW,314,0.0,0.0,97,0.00,,,0.00,,2013-08-02 06:12:00,
2013-08-02 02:22:00,56.0,55.0,29.98,NW,314,0.0,0.0,97,0.00,,,0.00,,2013-08-02 06:22:00,
2013-08-02 02:33:00,56.0,55.0,29.98,NW,314,0.0,0.0,97,0.00,,,0.00,,2013-08-02 06:33:00,
2013-08-02 02:52:00,56.0,55.0,29.98,NW,314,0.0,0.0,97,0.00,,,0.00,,2013-08-02 06:52:00,
2013-08-02 03:02:00,56.0,55.0,29.98,NW,314,0.0,0.0,97,0.00,,,0.00,,2013-08-02 07:02:00,
2013-08-02 03:12:00,56.0,55.0,29.97,NW,314,0.0,0.0,97,0.00,,,0.00,,2013-08-02 07:12:00,
2013-08-02 03:22:00,56.0,55.0,29.97,NW,314,0.0,0.0,97,0.00,,,0.00,,2013-08-02 07:22:00,
2013-08-02 03:33:00,56.0,55.0,29.97,NW,314,0.0,0.0,97,0.00,,,0.00,,2013-08-02 07:33:00,
2013-08-02 03:44:00,55.0,54.0,29.97,NW,314,0.0,0.0,97,0.00,,,0.00,,2013-08-02 07:44:00,
2013-08-02 03:53:00,55.0,54.0,29.97,NW,315,0.0,0.0,97,0.00,,,0.00,,2013-08-02 07:53:00,
2013-08-02 04:02:00,55.0,54.0,29.97,NW,314,0.0,0.0,98,0.00,,,0.00,,2013-08-02 08:02:00,
2013-08-02 04:12:00,55.0,54.0,29.97,NW,314,0.0,0.0,98,0.00,,,0.00,,2013-08-02 08:12:00,
2013-08-02 04:22:00,55.0,54.0,29.96,NW,314,0.0,0.0,98,0.00,,,0.00,,2013-08-02 08:22:00,
2013-08-02 04:33:00,55.0,54.0,29.97,WSW,252,0.0,1.0,98,0.00,,,0.00,,2013-08-02 08:33:00,
2013-08-02 04:43:00,56.0,55.0,29.96,WSW,250,0.0,1.0,98,0.00,,,0.00,,2013-08-02 08:43:00,
2013-08-02 04:53:00,55.0,54.0,29.97,WSW,239,0.0,1.0,98,0.00,,,0.00,,2013-08-02 08:53:00,
2013-08-02 05:02:00,56.0,55.0,29.97,WSW,239,0.0,1.0,98,0.00,,,0.00,,2013-08-02 09:02:00,
2013-08-02 05:12:00,56.0,55.0,29.97,WSW,239,0.0,1.0,98,0.00,,,0.00,,2013-08-02 09:12:00,
2013-08-02 05:23:00,56.0,55.0,29.98,WSW,239,0.0,1.0,98,0.00,,,0.00,,2013-08-02 09:23:00,
2013-08-02 05:33:00,57.0,56.0,29.98,WSW,239,0.0,1.0,98,0.00,,,0.00,,2013-08-02 09:33:00,
2013-08-02 05:53:00,57.0,56.0,29.98,WSW,239,0.0,1.0,97,0.00,,,0.00,,2013-08-02 09:53:00,
2013-08-02 06:03:00,58.0,57.0,29.98,SSW,210,1.0,1.0,96,0.00,,,0.00,,2013-08-02 10:03:00,
2013-08-02 06:12:00,58.0,57.0,29.98,SSW,193,0.0,1.0,96,0.00,,,0.00,,2013-08-02 10:12:00,
2013-08-02 06:43:00,60.0,58.0,29.98,SSW,205,0.0,1.0,92,0.00,,,0.00,,2013-08-02 10:43:00,
2013-08-02 06:52:00,60.0,58.0,29.98,SSW,205,0.0,1.0,93,0.00,,,0.00,,2013-08-02 10:52:00,
2013-08-02 07:02:00,60.0,58.0,29.97,SW,225,2.0,3.0,92,0.00,,,0.00,,2013-08-02 11:02:00,
2013-08-02 07:43:00,62.0,58.0,29.96,SW,219,0.0,2.0,88,0.00,,,0.00,,2013-08-02 11:43:00,
2013-08-02 07:52:00,62.0,58.0,29.96,SW,219,0.0,1.0,88,0.00,,,0.00,,2013-08-02 11:52:00,
2013-08-02 08:02:00,62.0,59.0,29.96,SW,219,0.0,1.0,91,0.00,,,0.00,,2013-08-02 12:02:00,
2013-08-02 08:33:00,61.0,59.0,29.97,South,184,0.0,1.0,93,0.00,,,0.00,,2013-08-02 12:33:00,
2013-08-02 08:43:00,61.0,59.0,29.98,SSE,158,0.0,2.0,94,0.00,,,0.00,,2013-08-02 12:43:00,
2013-08-02 08:52:00,61.0,60.0,29.98,SSE,158,1.0,2.0,95,0.00,,,0.00,,2013-08-02 12:52:00,
2013-08-02 09:02:00,61.0,60.0,29.97,SE,144,0.0,1.0,95,0.00,,,0.00,,2013-08-02 13:02:00,
2013-08-02 09:12:00,61.0,60.0,29.97,SE,144,0.0,1.0,96,0.00,,,0.00,,2013-08-02 13:12:00,
2013-08-02 09:33:00,62.0,61.0,29.96,SE,140,1.0,3.0,96,0.00,,,0.00,,2013-08-02 13:33:00,
2013-08-02 09:43:00,62.0,61.0,29.96,SSW,202,1.0,2.0,96,0.00,,,0.00,,2013-08-02 13:43:00,
2013-08-02 09:52:00,63.0,62.0,29.97,South,176,1.0,2.0,96,0.00,,,0.00,,2013-08-02 13:52:00,
2013-08-02 10:02:00,63.0,62.0,29.97,SSE,150,0.0,2.0,95,0.00,,,0.00,,2013-08-02 14:02:00,
2013-08-02 10:12:00,63.0,62.0,29.97,South,169,0.0,1.0,95,0.00,,,0.00,,2013-08-02 14:12:00,
2013-08-02 10:22:00,63.0,62.0,29.99,SSE,153,0.0,1.0,95,0.00,,,0.00,,2013-08-02 14:22:00,
2013-08-02 10:32:00,63.0,62.0,30.02,NW,314,1.0,2.0,96,0.00,,,0.00,,2013-08-02 14:32:00,
2013-08-02 10:43:00,63.0,62.0,30.01,NE,47,0.0,1.0,96,0.00,,,0.00,,2013-08-02 14:43:00,
2013-08-02 10:53:00,63.0,62.0,30.01,NE,47,0.0,1.0,96,0.00,,,0.00,,2013-08-02 14:53:00,
2013-08-02 11:03:00,63.0,62.0,30.00,SSE,162,0.0,1.0,96,0.00,,,0.00,,2013-08-02 15:03:00,
2013-08-02 11:12:00,63.0,62.0,30.02,SW,218,0.0,1.0,96,0.00,,,0.00,,2013-08-02 15:12:00,
2013-08-02 11:22:00,63.0,62.0,30.01,SE,134,0.0,1.0,96,0.00,,,0.00,,2013-08-02 15:22:00,
2013-08-02 11:32:00,63.0,62.0,30.02,SE,134,0.0,1.0,96,0.00,,,0.00,,2013-08-02 15:32:00,
2013-08-02 11:43:00,62.0,61.0,30.01,SSE,168,0.0,1.0,96,0.00,,,0.00,,2013-08-02 15:43:00,
2013-08-02 11:52:00,62.0,61.0,30.01,SW,217,0.0,2.0,96,0.00,,,0.00,,2013-08-02 15:52:00,
2013-08-02 12:02:00,62.0,61.0,30.00,SSE,153,1.0,3.0,96,0.00,,,0.00,,2013-08-02 16:02:00,
2013-08-02 12:12:00,62.0,61.0,29.99,SSE,153,1.0,2.0,96,0.00,,,0.00,,2013-08-02 16:12:00,
2013-08-02 12:32:00,62.0,61.0,30.00,SE,146,0.0,4.0,96,0.00,,,0.00,,2013-08-02 16:32:00,
2013-08-02 12:43:00,62.0,61.0,30.00,SSE,150,0.0,1.0,96,0.00,,,0.00,,2013-08-02 16:43:00,
2013-08-02 12:52:00,62.0,61.0,29.99,SE,145,0.0,3.0,96,0.00,,,0.00,,2013-08-02 16:52:00,
2013-08-02 13:02:00,63.0,62.0,29.98,South,177,3.0,5.0,97,0.00,,,0.00,,2013-08-02 17:02:00,
2013-08-02 13:12:00,64.0,63.0,29.97,SSE,160,1.0,7.0,97,0.00,,,0.00,,2013-08-02 17:12:00,
2013-08-02 13:22:00,64.0,63.0,29.98,SSE,167,2.0,6.0,95,0.00,,,0.00,,2013-08-02 17:22:00,
2013-08-02 13:52:00,65.0,64.0,29.97,South,186,0.0,4.0,95,0.00,,,0.00,,2013-08-02 17:52:00,
2013-08-02 14:43:00,71.0,68.0,29.93,SSE,151,1.0,5.0,90,0.00,,,0.00,,2013-08-02 18:43:00,
2013-08-02 14:52:00,72.0,68.0,29.93,SSW,194,3.0,6.0,87,0.00,,,0.00,,2013-08-02 18:52:00,
2013-08-02 15:43:00,76.0,70.0,29.92,SSW,198,2.0,7.0,81,0.00,,,0.00,,2013-08-02 19:43:00,
2013-08-02 15:52:00,77.0,70.0,29.92,SW,236,4.0,8.0,78,0.00,,,0.00,,2013-08-02 19:52:00,
2013-08-02 16:02:00,79.0,72.0,29.90,SSW,193,2.0,5.0,78,0.00,,,0.00,,2013-08-02 20:02:00,
2013-08-02 16:43:00,75.0,72.0,29.89,WSW,252,0.0,4.0,89,0.00,,,0.00,,2013-08-02 20:43:00,
2013-08-02 16:52:00,75.0,72.0,29.89,SW,232,4.0,10.0,89,0.00,,,0.00,,2013-08-02 20:52:00,
2013-08-02 17:03:00,75.0,69.0,29.89,SW,222,4.0,10.0,81,0.00,,,0.00,,2013-08-02 21:03:00,
2013-08-02 17:12:00,74.0,68.0,29.89,SW,229,4.0,9.0,83,0.00,,,0.00,,2013-08-02 21:12:00,
2013-08-02 17:32:00,71.0,67.0,29.88,WSW,251,3.0,7.0,88,0.00,,,0.00,,2013-08-02 21:32:00,
2013-08-02 17:53:00,70.0,68.0,29.91,WNW,285,2.0,6.0,93,0.00,,,0.00,,2013-08-02 21:53:00,
2013-08-02 18:02:00,69.0,68.0,29.88,SSE,160,1.0,2.0,96,0.00,,,0.00,,2013-08-02 22:02:00,
2013-08-02 18:12:00,69.0,68.0,29.89,SSW,197,0.0,2.0,96,0.00,,,0.00,,2013-08-02 22:12:00,
2013-08-02 18:52:00,68.0,67.0,29.90,WNW,287,3.0,6.0,97,0.00,,,0.00,,2013-08-02 22:52:00,
2013-08-02 19:02:00,68.0,67.0,29.89,NNW,328,1.0,5.0,97,0.00,,,0.00,,2013-08-02 23:02:00,
2013-08-02 19:12:00,68.0,67.0,29.89,NW,304,0.0,3.0,97,0.00,,,0.00,,2013-08-02 23:12:00,
2013-08-02 19:22:00,68.0,67.0,29.89,North,1,1.0,2.0,96,0.00,,,0.00,,2013-08-02 23:22:00,
2013-08-02 19:32:00,69.0,68.0,29.88,NNE,23,9.0,15.0,97,0.00,,,0.00,,2013-08-02 23:32:00,
2013-08-02 19:43:00,70.0,68.0,29.90,NNE,25,5.0,16.0,95,0.00,,,0.00,,2013-08-02 23:43:00,
2013-08-02 19:53:00,69.0,68.0,29.91,NNW,334,9.0,14.0,96,0.00,,,0.00,,2013-08-02 23:53:00,
2013-08-02 20:02:00,69.0,68.0,29.91,NW,310,3.0,9.0,96,0.00,,,0.00,,2013-08-03 00:02:00,
2013-08-02 20:12:00,69.0,68.0,29.91,WSW,257,1.0,5.0,97,0.00,,,0.00,,2013-08-03 00:12:00,
2013-08-02 20:22:00,68.0,67.0,29.92,SW,214,1.0,6.0,97,0.00,,,0.00,,2013-08-03 00:22:00,
2013-08-02 20:33:00,68.0,67.0,29.92,SSW,207,1.0,1.0,97,0.00,,,0.00,,2013-08-03 00:33:00,
2013-08-02 20:43:00,68.0,67.0,29.92,SW,217,0.0,1.0,97,0.00,,,0.00,,2013-08-03 00:43:00,
2013-08-02 20:52:00,68.0,67.0,29.92,SW,217,0.0,1.0,97,0.00,,,0.00,,2013-08-03 00:52:00,
2013-08-02 21:03:00,68.0,67.0,29.93,SW,217,0.0,0.0,97,0.00,,,0.00,,2013-08-03 01:03:00,
2013-08-02 21:12:00,68.0,67.0,29.93,WNW,291,2.0,5.0,98,0.00,,,0.00,,2013-08-03 01:12:00,
2013-08-02 21:22:00,68.0,67.0,29.94,West,275,5.0,11.0,98,0.00,,,0.00,,2013-08-03 01:22:00,
2013-08-02 21:32:00,68.0,67.0,29.94,WNW,292,1.0,10.0,97,0.00,,,0.00,,2013-08-03 01:32:00,
2013-08-02 21:42:00,68.0,67.0,29.93,NNE,13,0.0,2.0,97,0.00,,,0.00,,2013-08-03 01:42:00,
2013-08-02 21:53:00,68.0,67.0,29.95,WSW,243,3.0,5.0,97,0.00,,,0.00,,2013-08-03 01:53:00,
2013-08-02 22:02:00,68.0,67.0,29.95,SSW,205,2.0,6.0,98,0.00,,,0.00,,2013-08-03 02:02:00,
2013-08-02 22:22:00,68.0,67.0,29.95,SSW,213,3.0,5.0,97,0.00,,,0.00,,2013-08-03 02:22:00,
2013-08-02 22:32:00,68.0,67.0,29.95,West,269,0.0,5.0,97,0.00,,,0.00,,2013-08-03 02:32:00,
2013-08-02 22:43:00,67.0,66.0,29.94,West,269,0.0,0.0,97,0.00,,,0.00,,2013-08-03 02:43:00,
2013-08-02 22:52:00,67.0,66.0,29.94,West,269,0.0,1.0,97,0.00,,,0.00,,2013-08-03 02:52:00,
2013-08-02 23:02:00,67.0,66.0,29.94,SW,226,0.0,2.0,97,0.00,,,0.00,,2013-08-03 03:02:00,
2013-08-02 23:53:00,67.0,66.0,29.96,SE,145,0.0,1.0,98,0.00,,,0.00,,2013-08-03 03:53:00,